{"data":{"norad_id":65935,"epoch":"2026-09-20T21:57:49.428288Z","epoch_age_seconds":67199,"freshness":"FRESH","line1":"1 65935U 25225AB  26263.91515542  .00015256  00000+0  46164-3 0  9997","line2":"2 65935  53.1616 335.6393 0000941  87.5494 272.5616 15.34405768 53454","mean_motion":15.34405768,"eccentricity":9.41e-5,"inclination_deg":53.1616,"raan_deg":335.6393,"arg_perigee_deg":87.5494,"mean_anomaly_deg":272.5616,"bstar":0.00046164,"rev_number":5345,"period_min":93.847405297293,"perigee_km":462.04237509587,"apogee_km":463.32981800264,"semimajor_km":6840.8230965493,"source":"CELESTRAK","updated_at":"2026-09-21T09:00:35.767461Z"}}